Winslow, AZ

6:46 PM MST on February 23, 2017 (GMT -0700)
Winslow-Lindbergh Regional

Weather History for KINW - July, 2013

Change the Weather History Date:

Sunday, July 21, 2013

  Actual Average Record
Temperature  
Mean Temperature 79 °F 79 °F  
Max Temperature 90 °F 94 °F 104 °F (2005)
Min Temperature 67 °F 63 °F 49 °F (1924)
Degree Days  
Heating Degree Days 0 0  
Month to date heating degree days 0 0  
Since 1 July heating degree days 0 0  
Cooling Degree Days 14 14  
Month to date cooling degree days 331 279  
Year to date cooling degree days 758 587  
Growing Degree Days 29 (Base 50)    
Moisture  
Dew Point 58 °F    
Average Humidity 56    
Maximum Humidity 78    
Minimum Humidity 34    
Precipitation  
Precipitation 0.00 in 0.04 in 0.98 in (1917)
Month to date precipitation 1.14 0.62  
Year to date precipitation 2.93 2.91  
Sea Level Pressure  
Sea Level Pressure 29.85 in    
Wind  
Wind Speed 8 mph (SW)    
Max Wind Speed 28 mph    
Max Gust Speed 35 mph    
Visibility 10 miles    
Events      
T = Trace of Precipitation, MM = Missing Value Source: NWS Daily Summary

Daily Weather History Graph

Daily Weather History Graph

Search for Another Location

Airport or City:

Trip Planner

Search our weather history database for the weather conditions in past years. The results will help you decide how hot, cold, wet, or windy it might be!

Date:

Astronomy

Jul. 21, 2013 Rise Set
Actual Time 5:24 AM MST 7:33 PM MST
Civil Twilight 4:55 AM MST 8:02 PM MST
Nautical Twilight 4:20 AM MST 8:37 PM MST
Astronomical Twilight 3:43 AM MST 9:14 PM MST
Moon 6:36 PM MST (7/21) 4:13 AM MST (7/21)
Length of Visible Light 15h 06m
Length of Day
14h 09m
Waxing Gibbous, 99% of the Moon is Illuminated
Jul 21
Waxing Gibbous
Jul 22
Full
Jul 29
Last Quarter
Aug 6
New
Aug 14
First Quarter

Hourly Weather History & Observations

Time (MST) Temp. Heat Index Dew Point Humidity Pressure Visibility Wind Dir Wind Speed Gust Speed Precip Events Conditions
12:56 AM 70.0 °F - 61.0 °F 73% 29.79 in 10.0 mi WSW 9.2 mph - N/A   Clear
1:56 AM 69.1 °F - 60.1 °F 73% 29.78 in 10.0 mi SSW 9.2 mph - N/A   Clear
2:56 AM 70.0 °F - 59.0 °F 68% 29.76 in 10.0 mi SE 3.5 mph - N/A   Clear
3:56 AM 70.0 °F - 59.0 °F 68% 29.75 in 10.0 mi Calm Calm - N/A   Clear
4:56 AM 68.0 °F - 60.1 °F 76% 29.78 in 10.0 mi Calm Calm - N/A   Clear
5:56 AM 69.1 °F - 61.0 °F 75% 29.80 in 10.0 mi Calm Calm - N/A   Clear
6:56 AM 72.0 °F - 60.1 °F 66% 29.86 in 10.0 mi South 3.5 mph - N/A   Clear
7:56 AM 73.9 °F - 60.1 °F 62% 29.87 in 10.0 mi WSW 5.8 mph - N/A   Clear
8:56 AM 75.0 °F - 59.0 °F 57% 29.86 in 10.0 mi SSW 3.5 mph - N/A   Clear
9:56 AM 77.0 °F - 57.9 °F 52% 29.87 in 10.0 mi Calm Calm - N/A   Clear
10:56 AM 81.0 °F 81.1 °F 57.9 °F 45% 29.85 in 10.0 mi Calm Calm - N/A   Clear
11:56 AM 86.0 °F 84.9 °F 57.0 °F 37% 29.82 in 10.0 mi WNW 5.8 mph - N/A   Clear
12:56 PM 88.0 °F 86.1 °F 55.0 °F 32% 29.78 in 10.0 mi West 6.9 mph - N/A   Clear
1:56 PM 88.0 °F 86.1 °F 55.0 °F 32% 29.77 in 4.0 mi SSW 24.2 mph 31.1 mph N/A   Haze
2:05 PM 82.4 °F 82.0 °F 57.2 °F 42% 30.02 in 6.0 mi SW 23.0 mph 32.2 mph N/A   Haze
2:56 PM 78.1 °F - 57.0 °F 48% 29.81 in 10.0 mi SW 19.6 mph 31.1 mph N/A   Clear
3:56 PM 77.0 °F - 57.0 °F 50% 29.84 in 10.0 mi WSW 20.7 mph - N/A   Scattered Clouds
4:56 PM 75.9 °F - 57.0 °F 52% 29.85 in 10.0 mi SSW 23.0 mph 33.4 mph N/A   Mostly Cloudy
5:56 PM 75.9 °F - 57.9 °F 54% 29.83 in 10.0 mi SW 16.1 mph - N/A   Clear
6:56 PM 75.0 °F - 57.9 °F 55% 29.85 in 10.0 mi SW 12.7 mph - N/A   Clear
7:56 PM 73.0 °F - 57.9 °F 59% 29.93 in 10.0 mi ENE 15.0 mph 20.7 mph N/A   Mostly Cloudy
8:56 PM 72.0 °F - 57.0 °F 59% 29.93 in 10.0 mi East 5.8 mph - N/A   Partly Cloudy
9:56 PM 71.1 °F - 55.9 °F 59% 29.94 in 10.0 mi SSE 8.1 mph - N/A   Clear
10:56 PM 70.0 °F - 57.9 °F 65% 29.93 in 10.0 mi Calm Calm - N/A   Partly Cloudy
11:56 PM 70.0 °F - 57.9 °F 65% 29.93 in 10.0 mi North 3.5 mph - N/A   Scattered Clouds